Location: Poughquag
(41.6090°N, 73.6820°W)
Time: 07:09:09
(UTC-04:00)

Courier 1B - Visible Passes

Search period start: 29 May 2020 00:00
Search period end: 08 June 2020 00:00
Orbit: 963 x 1209 km, 28.3° (Epoch: 29 May)

Date Brightness Start Highest point End Pass type
(mag) Time Alt. Az. Time Alt. Az. Time Alt. Az.
29 May 9.4 01:42:36 18° SE 01:42:36 18° SE 01:45:00 10° ESE visible
29 May 8.7 03:29:29 24° SW 03:32:14 30° S 03:38:48 10° SE visible
30 May 8.7 02:38:57 30° S 02:38:57 30° S 02:45:06 10° ESE visible
30 May 8.9 04:25:50 10° WSW 04:31:54 25° SSW 04:37:58 10° SE visible
31 May 9.3 01:48:32 20° SE 01:48:32 20° SE 01:51:16 10° ESE visible
31 May 8.8 03:35:25 22° SW 03:38:11 28° S 03:44:33 10° SE visible
01 Jun 8.7 02:45:10 29° S 02:45:10 29° S 02:50:59 10° SE visible
01 Jun 9.1 04:32:32 10° WSW 04:37:47 20° SSW 04:43:02 10° SSE visible
02 Jun 9.4 01:55:08 18° SE 01:55:08 18° SE 01:57:17 10° SE visible
02 Jun 8.9 03:42:03 21° SW 03:44:06 23° SSW 03:49:54 10° SSE visible
03 Jun 9.0 02:52:17 23° S 02:52:17 23° S 02:56:33 10° SE visible
03 Jun 9.4 04:40:11 10° SW 04:43:36 13° SSW 04:47:01 10° S visible
03 Jun 9.1 22:05:45 10° SSW 22:08:52 17° S 22:08:52 17° S visible
04 Jun 9.8 02:02:46 11° SE 02:02:46 11° SE 02:03:02 10° SE visible
04 Jun 9.2 03:49:44 17° SSW 03:49:58 17° SSW 03:54:35 10° SSE visible
04 Jun 9.2 21:13:25 10° S 21:16:36 13° SSE 21:19:27 11° SE visible
04 Jun 9.1 23:03:57 10° SW 23:06:25 19° SSW 23:06:25 19° SSW visible
05 Jun 9.6 03:00:29 13° SSE 03:00:29 13° SSE 03:01:38 10° SSE visible
05 Jun 8.7 22:10:48 10° SSW 22:16:02 23° SSE 22:16:42 22° SSE visible
06 Jun 9.7 00:03:14 10° WSW 00:03:39 12° SW 00:03:39 12° SW visible
06 Jun 8.9 21:17:52 10° SSW 21:22:28 19° SSE 21:26:46 11° ESE visible
06 Jun 8.8 23:09:46 10° SW 23:13:41 25° SSW 23:13:41 25° SSW visible
07 Jun 8.6 22:16:25 10° SW 22:21:59 26° S 22:23:30 24° SSE visible
